Time,TemperatureF,DewpointF,PressureIn,WindDirection,WindDirectionDegrees,WindSpeedMPH,WindSpeedGustMPH,Humidity,HourlyPrecipIn,Conditions,Clouds,dailyrainin,SoftwareType,DateUTC
2013-06-22 00:00:00,54.3,49.6,30.09,ENE,68,0.0,0.0,84,0.00,,---,0.00,VWS V14.01,2013-06-22 07:00:00,
2013-06-22 00:02:00,54.1,49.4,30.09,East,90,0.0,0.0,84,0.00,,---,0.00,VWS V14.01,2013-06-22 07:02:00,
2013-06-22 00:07:00,54.0,49.2,30.09,East,90,0.0,0.0,84,0.00,,---,0.00,VWS V14.01,2013-06-22 07:07:00,
2013-06-22 00:10:00,54.0,49.2,30.09,East,90,0.0,0.0,84,0.00,,---,0.00,VWS V14.01,2013-06-22 07:10:00,
2013-06-22 00:12:00,53.8,49.1,30.09,East,90,0.0,0.0,84,0.00,,---,0.00,VWS V14.01,2013-06-22 07:12:00,
2013-06-22 00:17:00,53.6,48.9,30.09,East,90,0.0,0.0,84,0.00,,---,0.00,VWS V14.01,2013-06-22 07:17:00,
2013-06-22 00:20:00,53.4,48.7,30.09,East,90,0.0,0.0,84,0.00,,---,0.00,VWS V14.01,2013-06-22 07:20:00,
2013-06-22 00:22:00,53.2,48.5,30.09,East,90,0.0,0.0,84,0.00,,---,0.00,VWS V14.01,2013-06-22 07:22:00,
2013-06-22 00:27:00,53.1,48.4,30.06,East,90,0.0,0.0,84,0.00,,---,0.00,VWS V14.01,2013-06-22 07:27:00,
2013-06-22 00:30:00,53.1,48.4,30.06,East,90,0.0,0.0,84,0.00,,---,0.00,VWS V14.01,2013-06-22 07:30:00,
2013-06-22 00:32:00,53.1,48.7,30.06,East,90,0.0,0.0,85,0.00,,---,0.00,VWS V14.01,2013-06-22 07:32:00,
2013-06-22 00:37:00,53.1,48.7,30.06,East,90,0.0,0.0,85,0.00,,---,0.00,VWS V14.01,2013-06-22 07:37:00,
2013-06-22 00:40:00,53.1,48.7,30.06,East,90,0.0,0.0,85,0.00,,---,0.00,VWS V14.01,2013-06-22 07:40:00,
2013-06-22 00:42:00,52.5,48.2,30.06,East,90,0.0,0.0,85,0.00,,---,0.00,VWS V14.01,2013-06-22 07:42:00,
2013-06-22 00:47:00,52.5,48.2,30.06,East,90,0.0,0.0,85,0.00,,---,0.00,VWS V14.01,2013-06-22 07:47:00,
2013-06-22 00:50:00,52.5,48.2,30.06,East,90,0.0,0.0,85,0.00,,---,0.00,VWS V14.01,2013-06-22 07:50:00,
2013-06-22 00:52:00,52.5,48.2,30.06,East,90,0.0,0.0,85,0.00,,---,0.00,VWS V14.01,2013-06-22 07:52:00,
2013-06-22 00:57:00,52.5,48.2,30.06,East,90,0.0,0.0,85,0.00,,---,0.00,VWS V14.01,2013-06-22 07:57:00,
2013-06-22 01:00:00,52.3,48.0,30.06,East,90,0.0,0.0,85,0.00,,---,0.00,VWS V14.01,2013-06-22 08:00:00,
2013-06-22 01:02:00,52.2,47.8,30.06,East,90,0.0,0.0,85,0.00,,---,0.00,VWS V14.01,2013-06-22 08:02:00,
2013-06-22 01:07:00,52.0,47.6,30.06,East,90,0.0,0.0,85,0.00,,---,0.00,VWS V14.01,2013-06-22 08:07:00,
2013-06-22 01:10:00,52.0,47.6,30.06,East,90,0.0,0.0,85,0.00,,---,0.00,VWS V14.01,2013-06-22 08:10:00,
2013-06-22 01:12:00,51.8,47.4,30.06,East,90,0.0,0.0,85,0.00,,---,0.00,VWS V14.01,2013-06-22 08:12:00,
2013-06-22 01:17:00,51.8,47.4,30.06,East,90,0.0,0.0,85,0.00,,---,0.00,VWS V14.01,2013-06-22 08:17:00,
2013-06-22 01:20:00,51.8,47.4,30.06,East,90,0.0,0.0,85,0.00,,---,0.00,VWS V14.01,2013-06-22 08:20:00,
2013-06-22 01:22:00,51.6,47.6,30.06,East,90,0.0,0.0,86,0.00,,---,0.00,VWS V14.01,2013-06-22 08:22:00,
2013-06-22 01:27:00,51.4,47.4,30.06,East,90,0.0,0.0,86,0.00,,---,0.00,VWS V14.01,2013-06-22 08:27:00,
2013-06-22 01:30:00,51.4,47.4,30.06,East,90,0.0,0.0,86,0.00,,---,0.00,VWS V14.01,2013-06-22 08:30:00,
2013-06-22 01:32:00,51.3,47.2,30.06,East,90,0.0,0.0,86,0.00,,---,0.00,VWS V14.01,2013-06-22 08:32:00,
2013-06-22 01:37:00,51.1,47.0,30.06,East,90,0.0,0.0,86,0.00,,---,0.00,VWS V14.01,2013-06-22 08:37:00,
2013-06-22 01:40:00,51.1,47.0,30.06,East,90,0.0,0.0,86,0.00,,---,0.00,VWS V14.01,2013-06-22 08:40:00,
2013-06-22 01:42:00,51.1,47.0,30.06,East,90,0.0,0.0,86,0.00,,---,0.00,VWS V14.01,2013-06-22 08:42:00,
2013-06-22 01:48:00,51.3,47.2,30.06,East,90,0.0,0.0,86,0.00,,---,0.00,VWS V14.01,2013-06-22 08:48:00,
2013-06-22 01:50:00,51.3,47.5,30.06,East,90,0.0,0.0,87,0.00,,---,0.00,VWS V14.01,2013-06-22 08:50:00,
2013-06-22 01:53:00,51.1,47.3,30.06,East,90,0.0,0.0,87,0.00,,---,0.00,VWS V14.01,2013-06-22 08:53:00,
2013-06-22 01:58:00,51.1,47.3,30.06,East,90,0.0,0.0,87,0.00,,---,0.00,VWS V14.01,2013-06-22 08:58:00,
2013-06-22 02:00:00,50.9,47.2,30.06,East,90,0.0,0.0,87,0.00,,---,0.00,VWS V14.01,2013-06-22 09:00:00,
2013-06-22 02:03:00,50.9,47.2,30.06,East,90,0.0,0.0,87,0.00,,---,0.00,VWS V14.01,2013-06-22 09:03:00,
2013-06-22 02:08:00,50.9,47.5,30.06,East,90,0.0,0.0,88,0.00,,---,0.00,VWS V14.01,2013-06-22 09:08:00,
2013-06-22 02:10:00,50.9,47.5,30.06,East,90,0.0,0.0,88,0.00,,---,0.00,VWS V14.01,2013-06-22 09:10:00,
2013-06-22 02:13:00,50.7,47.3,30.06,East,90,0.0,0.0,88,0.00,,---,0.00,VWS V14.01,2013-06-22 09:13:00,
2013-06-22 02:18:00,50.7,47.3,30.06,East,90,0.0,0.0,88,0.00,,---,0.00,VWS V14.01,2013-06-22 09:18:00,
2013-06-22 02:20:00,50.7,47.3,30.06,East,90,0.0,0.0,88,0.00,,---,0.00,VWS V14.01,2013-06-22 09:20:00,
2013-06-22 02:23:00,50.7,47.3,30.06,East,90,0.0,0.0,88,0.00,,---,0.00,VWS V14.01,2013-06-22 09:23:00,
2013-06-22 02:28:00,50.9,47.8,30.06,ESE,112,0.0,0.0,89,0.00,,---,0.00,VWS V14.01,2013-06-22 09:28:00,
2013-06-22 02:30:00,50.9,47.8,30.06,ESE,112,1.3,1.3,89,0.00,,---,0.00,VWS V14.01,2013-06-22 09:30:00,
2013-06-22 02:33:00,50.9,47.8,30.06,ESE,112,1.1,1.6,89,0.00,,---,0.00,VWS V14.01,2013-06-22 09:33:00,
2013-06-22 02:38:00,51.1,48.0,30.06,SE,135,0.0,1.6,89,0.00,,---,0.00,VWS V14.01,2013-06-22 09:38:00,
2013-06-22 02:40:00,51.1,48.0,30.06,SE,135,1.3,2.0,89,0.00,,---,0.00,VWS V14.01,2013-06-22 09:40:00,
2013-06-22 02:43:00,51.1,48.0,30.06,SE,135,0.0,1.3,89,0.00,,---,0.00,VWS V14.01,2013-06-22 09:43:00,
2013-06-22 02:48:00,51.1,48.0,30.06,SE,135,2.5,2.7,89,0.00,,---,0.00,VWS V14.01,2013-06-22 09:48:00,
2013-06-22 02:50:00,51.1,48.0,30.06,SE,135,2.9,2.9,89,0.00,,---,0.00,VWS V14.01,2013-06-22 09:50:00,
2013-06-22 02:53:00,51.1,48.2,30.06,SE,135,0.0,2.9,90,0.00,,---,0.00,VWS V14.01,2013-06-22 09:53:00,
2013-06-22 02:58:00,51.3,48.4,30.06,SE,135,1.6,2.9,90,0.00,,---,0.00,VWS V14.01,2013-06-22 09:58:00,
2013-06-22 03:00:00,51.3,48.4,30.06,SE,135,2.7,2.9,90,0.00,,---,0.00,VWS V14.01,2013-06-22 10:00:00,
2013-06-22 03:03:00,51.3,48.4,30.06,SE,135,0.9,2.7,90,0.00,,---,0.00,VWS V14.01,2013-06-22 10:03:00,
2013-06-22 03:08:00,51.3,48.4,30.06,SE,135,0.0,2.7,90,0.00,,---,0.00,VWS V14.01,2013-06-22 10:08:00,
2013-06-22 03:10:00,51.3,48.4,30.06,SE,135,0.0,2.7,90,0.00,,---,0.00,VWS V14.01,2013-06-22 10:10:00,
2013-06-22 03:13:00,51.1,48.2,30.06,SE,135,0.0,0.0,90,0.00,,---,0.00,VWS V14.01,2013-06-22 10:13:00,
2013-06-22 03:18:00,51.1,48.2,30.06,SSE,158,0.0,0.0,90,0.00,,---,0.00,VWS V14.01,2013-06-22 10:18:00,
2013-06-22 03:20:00,51.1,48.3,30.06,SSE,158,0.0,0.0,90,0.00,,---,0.00,VWS V14.01,2013-06-22 10:20:00,
2013-06-22 03:23:00,51.1,48.2,30.06,SSE,158,1.6,1.6,90,0.00,,---,0.00,VWS V14.01,2013-06-22 10:23:00,
2013-06-22 03:28:00,51.1,48.2,30.03,SSE,158,1.6,2.0,90,0.00,,---,0.00,VWS V14.01,2013-06-22 10:28:00,
2013-06-22 03:30:00,51.1,48.3,30.03,SSE,158,1.6,2.0,90,0.00,,---,0.00,VWS V14.01,2013-06-22 10:30:00,
2013-06-22 03:33:00,50.9,48.4,30.03,SSE,158,0.0,1.6,91,0.00,,---,0.00,VWS V14.01,2013-06-22 10:33:00,
2013-06-22 03:38:00,50.9,48.4,30.03,SSE,158,1.3,2.0,91,0.00,,---,0.00,VWS V14.01,2013-06-22 10:38:00,
2013-06-22 03:40:00,50.9,48.4,30.03,SSE,158,2.0,2.0,91,0.00,,---,0.00,VWS V14.01,2013-06-22 10:40:00,
2013-06-22 03:43:00,50.7,48.2,30.03,SSE,158,0.0,2.0,91,0.00,,---,0.00,VWS V14.01,2013-06-22 10:43:00,
2013-06-22 03:48:00,50.7,48.2,30.03,SSE,158,0.0,2.0,91,0.00,,---,0.00,VWS V14.01,2013-06-22 10:48:00,
2013-06-22 03:50:00,50.7,48.2,30.03,SSE,158,1.6,2.0,91,0.00,,---,0.00,VWS V14.01,2013-06-22 10:50:00,
2013-06-22 03:53:00,50.5,48.0,30.03,SSE,158,2.7,2.7,91,0.00,,---,0.00,VWS V14.01,2013-06-22 10:53:00,
2013-06-22 03:58:00,50.7,48.2,30.03,SSE,158,1.3,2.7,91,0.00,,---,0.00,VWS V14.01,2013-06-22 10:58:00,
2013-06-22 04:00:00,50.7,48.2,30.03,SSE,158,0.0,2.7,91,0.00,,---,0.00,VWS V14.01,2013-06-22 11:00:00,
2013-06-22 04:03:00,50.5,48.0,30.03,SSE,158,2.5,2.7,91,0.00,,---,0.00,VWS V14.01,2013-06-22 11:03:00,
2013-06-22 04:08:00,50.5,48.0,30.03,SSE,158,0.0,2.9,91,0.00,,---,0.00,VWS V14.01,2013-06-22 11:08:00,
2013-06-22 04:10:00,50.5,48.0,30.03,SSE,158,1.3,2.9,91,0.00,,---,0.00,VWS V14.01,2013-06-22 11:10:00,
2013-06-22 04:14:00,50.5,48.0,30.03,SSE,158,0.0,1.3,91,0.00,,---,0.00,VWS V14.01,2013-06-22 11:14:00,
2013-06-22 04:19:00,50.4,48.1,30.03,SSE,158,0.0,1.3,92,0.00,,---,0.00,VWS V14.01,2013-06-22 11:19:00,
2013-06-22 04:20:00,50.4,48.1,30.03,SSE,158,0.0,1.3,92,0.00,,---,0.00,VWS V14.01,2013-06-22 11:20:00,
2013-06-22 04:24:00,50.4,48.1,30.03,SSE,158,0.0,0.0,92,0.00,,---,0.00,VWS V14.01,2013-06-22 11:24:00,
2013-06-22 04:29:00,50.2,48.0,30.03,SSE,158,0.0,0.0,92,0.00,,---,0.00,VWS V14.01,2013-06-22 11:29:00,
2013-06-22 04:30:00,50.2,48.0,30.03,SSE,158,0.0,0.0,92,0.00,,---,0.00,VWS V14.01,2013-06-22 11:30:00,
2013-06-22 04:34:00,50.2,48.0,30.03,SSE,158,1.6,2.2,92,0.00,,---,0.00,VWS V14.01,2013-06-22 11:34:00,
2013-06-22 04:39:00,50.0,47.8,30.03,SSE,158,0.9,2.2,92,0.00,,---,0.00,VWS V14.01,2013-06-22 11:39:00,
2013-06-22 04:40:00,50.0,47.8,30.03,SSE,158,0.0,2.2,92,0.00,,---,0.00,VWS V14.01,2013-06-22 11:40:00,
2013-06-22 04:44:00,49.8,47.6,30.03,SSE,158,0.9,0.9,92,0.00,,---,0.00,VWS V14.01,2013-06-22 11:44:00,
2013-06-22 04:49:00,49.8,47.6,30.03,SSE,158,0.9,1.6,92,0.00,,---,0.00,VWS V14.01,2013-06-22 11:49:00,
2013-06-22 04:50:00,49.8,47.6,30.03,SSE,158,2.0,2.0,92,0.00,,---,0.00,VWS V14.01,2013-06-22 11:50:00,
2013-06-22 04:54:00,50.0,47.8,30.03,SSE,158,0.0,2.0,92,0.00,,---,0.00,VWS V14.01,2013-06-22 11:54:00,
2013-06-22 04:59:00,50.0,47.8,30.03,SSE,158,1.1,2.0,92,0.00,,---,0.00,VWS V14.01,2013-06-22 11:59:00,
2013-06-22 05:00:00,50.0,47.8,30.03,SSE,158,1.1,2.0,92,0.00,,---,0.00,VWS V14.01,2013-06-22 12:00:00,
2013-06-22 05:04:00,50.0,48.1,30.03,SSE,158,0.0,1.1,93,0.00,,---,0.00,VWS V14.01,2013-06-22 12:04:00,
2013-06-22 05:09:00,50.2,48.2,30.03,SSE,158,0.0,1.1,93,0.00,,---,0.00,VWS V14.01,2013-06-22 12:09:00,
2013-06-22 05:10:00,50.2,48.2,30.03,SSE,158,0.0,1.1,93,0.00,,---,0.00,VWS V14.01,2013-06-22 12:10:00,
2013-06-22 05:14:00,50.2,48.2,30.03,SSE,158,0.0,1.6,93,0.00,,---,0.00,VWS V14.01,2013-06-22 12:14:00,
2013-06-22 05:19:00,50.2,48.2,30.03,SE,135,1.6,2.2,93,0.00,,---,0.00,VWS V14.01,2013-06-22 12:19:00,
2013-06-22 05:20:00,50.2,48.2,30.03,SE,135,1.3,2.2,93,0.00,,---,0.00,VWS V14.01,2013-06-22 12:20:00,
2013-06-22 05:24:00,50.4,48.4,30.03,SE,135,0.0,2.5,93,0.00,,---,0.00,VWS V14.01,2013-06-22 12:24:00,
2013-06-22 05:29:00,50.4,48.4,30.03,SE,135,0.9,2.5,93,0.00,,---,0.00,VWS V14.01,2013-06-22 12:29:00,
2013-06-22 05:30:00,50.4,48.4,30.03,SE,135,1.3,2.5,93,0.00,,---,0.00,VWS V14.01,2013-06-22 12:30:00,
2013-06-22 05:34:00,50.4,48.4,30.03,SE,135,1.1,2.5,93,0.00,,---,0.00,VWS V14.01,2013-06-22 12:34:00,
2013-06-22 05:39:00,50.2,48.2,30.03,SE,135,0.0,3.1,93,0.00,,---,0.00,VWS V14.01,2013-06-22 12:39:00,
2013-06-22 05:40:00,50.2,48.2,30.03,SE,135,0.0,3.1,93,0.00,,---,0.00,VWS V14.01,2013-06-22 12:40:00,
2013-06-22 05:44:00,50.2,48.2,30.03,SE,135,0.0,1.6,93,0.00,,---,0.00,VWS V14.01,2013-06-22 12:44:00,
2013-06-22 05:49:00,50.0,48.3,30.03,SE,135,0.0,1.6,94,0.00,,---,0.00,VWS V14.01,2013-06-22 12:49:00,
2013-06-22 05:50:00,50.0,48.3,30.03,SE,135,0.0,1.6,94,0.00,,---,0.00,VWS V14.01,2013-06-22 12:50:00,
2013-06-22 05:54:00,49.8,48.2,30.03,SE,135,2.0,2.9,94,0.00,,---,0.00,VWS V14.01,2013-06-22 12:54:00,
2013-06-22 05:59:00,49.8,48.2,30.03,SE,135,2.5,2.9,94,0.00,,---,0.00,VWS V14.01,2013-06-22 12:59:00,
2013-06-22 06:00:00,49.8,48.2,30.03,SE,135,1.1,2.9,94,0.00,,---,0.00,VWS V14.01,2013-06-22 13:00:00,
2013-06-22 06:04:00,49.8,48.2,30.03,SE,135,1.3,2.0,94,0.00,,---,0.00,VWS V14.01,2013-06-22 13:04:00,
2013-06-22 06:09:00,49.8,48.2,30.03,SE,135,2.2,2.2,94,0.00,,---,0.00,VWS V14.01,2013-06-22 13:09:00,
2013-06-22 06:10:00,49.8,48.2,30.03,SE,135,2.2,2.2,94,0.00,,---,0.00,VWS V14.01,2013-06-22 13:10:00,
2013-06-22 06:14:00,49.8,48.2,30.03,SE,135,0.0,2.5,94,0.00,,---,0.00,VWS V14.01,2013-06-22 13:14:00,
2013-06-22 06:19:00,49.6,48.0,30.03,SE,135,2.9,2.9,94,0.00,,---,0.00,VWS V14.01,2013-06-22 13:19:00,
2013-06-22 06:20:00,49.6,48.0,30.03,SE,135,2.9,2.9,94,0.00,,---,0.00,VWS V14.01,2013-06-22 13:20:00,
2013-06-22 06:24:00,49.6,48.0,30.03,SE,135,0.0,2.9,94,0.00,,---,0.00,VWS V14.01,2013-06-22 13:24:00,
2013-06-22 06:29:00,49.8,48.2,30.03,SE,135,2.7,2.9,94,0.00,,---,0.00,VWS V14.01,2013-06-22 13:29:00,
2013-06-22 06:30:00,49.8,48.2,30.03,SE,135,3.1,3.1,94,0.00,,---,0.00,VWS V14.01,2013-06-22 13:30:00,
2013-06-22 06:34:00,49.8,48.2,30.03,SE,135,2.2,3.1,94,0.00,,---,0.00,VWS V14.01,2013-06-22 13:34:00,
2013-06-22 06:39:00,50.0,48.1,30.03,SE,135,3.6,3.6,93,0.00,,---,0.00,VWS V14.01,2013-06-22 13:39:00,
2013-06-22 06:40:00,50.0,48.1,30.03,SE,135,2.0,3.6,93,0.00,,---,0.00,VWS V14.01,2013-06-22 13:40:00,
2013-06-22 06:44:00,50.2,48.2,30.03,SE,135,2.7,2.7,93,0.00,,---,0.00,VWS V14.01,2013-06-22 13:44:00,
2013-06-22 06:49:00,50.4,48.4,30.03,SE,135,2.5,2.9,93,0.00,,---,0.00,VWS V14.01,2013-06-22 13:49:00,
2013-06-22 06:50:00,50.4,48.4,30.03,SE,135,2.5,2.9,93,0.00,,---,0.00,VWS V14.01,2013-06-22 13:50:00,
2013-06-22 06:54:00,50.4,48.4,30.03,SE,135,1.6,3.1,93,0.00,,---,0.00,VWS V14.01,2013-06-22 13:54:00,
2013-06-22 06:59:00,50.5,48.6,30.03,SE,135,2.5,3.8,93,0.00,,---,0.00,VWS V14.01,2013-06-22 13:59:00,
2013-06-22 07:00:00,50.5,48.6,30.03,SE,135,2.5,3.8,93,0.00,,---,0.00,VWS V14.01,2013-06-22 14:00:00,
2013-06-22 07:04:00,50.7,49.1,30.03,SSE,158,1.3,2.5,94,0.00,,---,0.00,VWS V14.01,2013-06-22 14:04:00,
2013-06-22 07:09:00,50.9,49.2,30.03,SSE,158,1.1,2.5,94,0.00,,---,0.00,VWS V14.01,2013-06-22 14:09:00,
2013-06-22 07:10:00,50.9,49.2,30.03,SE,135,3.1,3.1,94,0.00,,---,0.00,VWS V14.01,2013-06-22 14:10:00,
2013-06-22 07:14:00,51.4,49.8,30.03,SE,135,2.2,3.1,94,0.00,,---,0.00,VWS V14.01,2013-06-22 14:14:00,
2013-06-22 07:19:00,51.6,50.0,30.03,SSE,158,2.9,3.1,94,0.00,,---,0.00,VWS V14.01,2013-06-22 14:19:00,
2013-06-22 07:20:00,51.6,50.0,30.03,SSE,158,2.9,3.1,94,0.00,,---,0.00,VWS V14.01,2013-06-22 14:20:00,
2013-06-22 07:24:00,51.8,50.1,30.03,SE,135,1.6,2.9,94,0.00,,---,0.00,VWS V14.01,2013-06-22 14:24:00,
2013-06-22 07:29:00,52.3,50.7,30.03,SE,135,2.0,2.9,94,0.00,,---,0.00,VWS V14.01,2013-06-22 14:29:00,
2013-06-22 07:30:00,52.3,50.7,30.03,SE,135,2.0,2.9,94,0.00,,---,0.00,VWS V14.01,2013-06-22 14:30:00,
2013-06-22 07:34:00,53.1,51.4,30.03,SE,135,2.0,2.0,94,0.00,,---,0.00,VWS V14.01,2013-06-22 14:34:00,
2013-06-22 07:39:00,53.4,51.7,30.03,SSE,158,0.0,3.6,94,0.00,,---,0.00,VWS V14.01,2013-06-22 14:39:00,
2013-06-22 07:40:00,53.4,51.7,30.03,SSE,158,0.0,3.6,94,0.00,,---,0.00,VWS V14.01,2013-06-22 14:40:00,
2013-06-22 07:44:00,53.8,52.1,30.00,SE,135,1.6,2.7,94,0.00,,---,0.00,VWS V14.01,2013-06-22 14:44:00,
2013-06-22 07:50:00,54.5,52.8,30.00,ESE,112,3.4,3.4,94,0.00,,---,0.00,VWS V14.01,2013-06-22 14:50:00,
2013-06-22 07:55:00,55.0,53.3,30.00,SE,135,1.3,3.4,94,0.00,,---,0.00,VWS V14.01,2013-06-22 14:55:00,
2013-06-22 08:00:00,55.4,53.4,30.00,SE,135,1.3,3.4,93,0.00,,---,0.00,VWS V14.01,2013-06-22 15:00:00,
2013-06-22 08:05:00,55.6,53.6,30.00,SE,135,0.0,4.3,93,0.00,,---,0.00,VWS V14.01,2013-06-22 15:05:00,
2013-06-22 08:10:00,55.8,53.8,30.00,SSE,158,2.2,4.3,93,0.00,,---,0.00,VWS V14.01,2013-06-22 15:10:00,
2013-06-22 08:15:00,55.9,54.0,30.00,SW,225,0.0,2.2,93,0.00,,---,0.00,VWS V14.01,2013-06-22 15:15:00,
2013-06-22 08:20:00,55.9,54.0,30.00,SE,135,2.5,2.5,93,0.00,,---,0.00,VWS V14.01,2013-06-22 15:20:00,
2013-06-22 08:25:00,56.3,54.3,30.00,SE,135,2.0,3.1,93,0.00,,---,0.00,VWS V14.01,2013-06-22 15:25:00,
2013-06-22 08:30:00,56.7,54.7,30.00,ESE,112,0.9,1.3,93,0.00,,---,0.00,VWS V14.01,2013-06-22 15:30:00,
2013-06-22 08:35:00,56.8,54.8,30.00,SE,135,0.0,2.5,93,0.00,,---,0.00,VWS V14.01,2013-06-22 15:35:00,
2013-06-22 08:40:00,57.2,54.9,30.00,SSW,202,0.0,0.0,92,0.00,,---,0.00,VWS V14.01,2013-06-22 15:40:00,
2013-06-22 08:45:00,57.6,55.3,30.00,SSE,158,2.7,2.7,92,0.00,,---,0.00,VWS V14.01,2013-06-22 15:45:00,
2013-06-22 08:50:00,57.9,55.6,30.00,SE,135,0.0,0.0,92,0.00,,---,0.00,VWS V14.01,2013-06-22 15:50:00,
2013-06-22 08:55:00,58.5,56.2,30.00,SE,135,0.0,2.7,92,0.00,,---,0.00,VWS V14.01,2013-06-22 15:55:00,
2013-06-22 09:00:00,58.8,56.5,30.00,SE,135,0.0,0.0,92,0.00,,---,0.00,VWS V14.01,2013-06-22 16:00:00,
2013-06-22 09:05:00,59.5,56.9,30.00,SE,135,2.2,3.1,91,0.00,,---,0.00,VWS V14.01,2013-06-22 16:05:00,
2013-06-22 09:10:00,59.9,57.3,30.00,SE,135,1.1,1.1,91,0.00,,---,0.00,VWS V14.01,2013-06-22 16:10:00,
2013-06-22 09:15:00,60.4,57.5,30.00,SE,135,0.0,2.7,90,0.00,,---,0.00,VWS V14.01,2013-06-22 16:15:00,
2013-06-22 09:20:00,60.6,57.4,30.00,SSW,202,0.0,1.1,89,0.00,,---,0.00,VWS V14.01,2013-06-22 16:20:00,
2013-06-22 09:25:00,61.3,57.8,30.00,SSE,158,0.9,2.2,88,0.00,,---,0.00,VWS V14.01,2013-06-22 16:25:00,
2013-06-22 09:30:00,61.7,57.8,30.00,ESE,112,0.9,1.3,87,0.00,,---,0.00,VWS V14.01,2013-06-22 16:30:00,
2013-06-22 09:35:00,62.2,57.7,30.00,SSE,158,1.1,2.5,85,0.00,,---,0.00,VWS V14.01,2013-06-22 16:35:00,
2013-06-22 09:40:00,62.6,57.4,30.00,SE,135,1.6,1.6,83,0.00,,---,0.00,VWS V14.01,2013-06-22 16:40:00,
2013-06-22 09:45:00,62.6,56.7,30.00,ESE,112,1.6,3.8,81,0.00,,---,0.00,VWS V14.01,2013-06-22 16:45:00,
2013-06-22 09:50:00,63.1,56.9,30.00,SE,135,2.5,2.5,80,0.00,,---,0.00,VWS V14.01,2013-06-22 16:50:00,
2013-06-22 09:55:00,63.3,56.3,30.00,NNE,22,2.0,3.1,78,0.00,,---,0.00,VWS V14.01,2013-06-22 16:55:00,
2013-06-22 10:00:00,63.1,55.1,30.00,NNW,338,3.4,3.4,75,0.00,,---,0.00,VWS V14.01,2013-06-22 17:00:00,
2013-06-22 10:01:00,63.0,53.8,30.00,WNW,292,2.2,3.4,72,0.00,,---,0.00,VWS V14.01,2013-06-22 17:01:00,
2013-06-22 10:06:00,63.0,54.9,30.00,WNW,292,2.2,3.4,75,0.00,,---,0.00,VWS V14.01,2013-06-22 17:06:00,
2013-06-22 10:10:00,62.2,53.9,30.00,WNW,292,2.2,3.4,74,0.00,,---,0.00,VWS V14.01,2013-06-22 17:10:00,
2013-06-22 10:11:00,61.9,53.5,30.00,WNW,292,4.3,4.3,74,0.00,,---,0.00,VWS V14.01,2013-06-22 17:11:00,
2013-06-22 10:16:00,61.2,52.5,30.00,WNW,292,1.1,4.3,73,0.00,,---,0.00,VWS V14.01,2013-06-22 17:16:00,
2013-06-22 10:20:00,61.0,52.3,30.00,NNW,338,2.7,4.9,73,0.00,,---,0.00,VWS V14.01,2013-06-22 17:20:00,
2013-06-22 10:21:00,61.0,52.3,30.00,WSW,248,2.9,2.9,73,0.00,,---,0.00,VWS V14.01,2013-06-22 17:21:00,
2013-06-22 10:26:00,60.8,52.8,30.00,WNW,292,0.0,3.1,75,0.00,,---,0.00,VWS V14.01,2013-06-22 17:26:00,
2013-06-22 10:30:00,60.6,52.3,30.00,NW,315,3.8,3.8,74,0.00,,---,0.00,VWS V14.01,2013-06-22 17:30:00,
2013-06-22 10:31:00,60.6,52.7,30.00,NNW,338,2.7,3.8,75,0.00,,---,0.00,VWS V14.01,2013-06-22 17:31:00,
2013-06-22 10:36:00,59.9,52.0,30.00,NW,315,7.2,7.2,75,0.00,,---,0.00,VWS V14.01,2013-06-22 17:36:00,
2013-06-22 10:40:00,59.5,52.0,30.00,NNW,338,5.4,7.2,76,0.00,,---,0.00,VWS V14.01,2013-06-22 17:40:00,
2013-06-22 10:41:00,59.4,52.2,30.00,WNW,292,3.6,5.4,77,0.00,,---,0.00,VWS V14.01,2013-06-22 17:41:00,
2013-06-22 10:46:00,59.0,52.2,29.97,NNW,338,4.3,6.3,78,0.00,,---,0.00,VWS V14.01,2013-06-22 17:46:00,
2013-06-22 10:50:00,59.0,52.2,29.97,NW,315,4.9,6.3,78,0.00,,---,0.00,VWS V14.01,2013-06-22 17:50:00,
2013-06-22 10:51:00,59.0,52.2,29.97,WNW,292,2.7,4.9,78,0.00,,---,0.00,VWS V14.01,2013-06-22 17:51:00,
2013-06-22 10:56:00,59.2,52.3,29.97,WNW,292,4.3,6.5,78,0.00,,---,0.00,VWS V14.01,2013-06-22 17:56:00,
2013-06-22 11:00:00,59.2,52.3,29.97,WNW,292,3.4,6.5,78,0.00,,---,0.00,VWS V14.01,2013-06-22 18:00:00,
2013-06-22 11:01:00,59.2,52.3,29.97,NW,315,2.0,4.9,78,0.00,,---,0.00,VWS V14.01,2013-06-22 18:01:00,
2013-06-22 11:06:00,59.5,53.0,29.97,NW,315,2.2,4.9,79,0.00,,---,0.00,VWS V14.01,2013-06-22 18:06:00,
2013-06-22 11:10:00,59.5,52.7,29.97,WNW,292,3.6,4.9,78,0.00,,---,0.00,VWS V14.01,2013-06-22 18:10:00,
2013-06-22 11:11:00,59.5,52.7,29.97,NNW,338,7.2,7.2,78,0.00,,---,0.00,VWS V14.01,2013-06-22 18:11:00,
2013-06-22 11:16:00,59.4,52.9,29.97,NNW,338,3.8,7.2,79,0.00,,---,0.00,VWS V14.01,2013-06-22 18:16:00,
2013-06-22 11:20:00,59.4,52.8,29.97,WNW,292,4.9,7.2,79,0.00,,---,0.00,VWS V14.01,2013-06-22 18:20:00,
2013-06-22 11:21:00,59.4,52.9,29.97,NW,315,3.8,4.9,79,0.00,,---,0.00,VWS V14.01,2013-06-22 18:21:00,
2013-06-22 11:26:00,59.4,52.9,29.97,NNW,338,3.8,7.6,79,0.00,,---,0.00,VWS V14.01,2013-06-22 18:26:00,
2013-06-22 11:30:00,59.4,53.2,29.97,WNW,292,7.2,7.6,80,0.00,,---,0.00,VWS V14.01,2013-06-22 18:30:00,
2013-06-22 11:31:00,59.4,53.2,29.97,NW,315,5.4,7.2,80,0.00,,---,0.00,VWS V14.01,2013-06-22 18:31:00,
2013-06-22 11:36:00,59.2,53.0,29.97,WNW,292,7.6,8.5,80,0.00,,---,0.00,VWS V14.01,2013-06-22 18:36:00,
2013-06-22 11:40:00,59.2,52.7,29.97,NW,315,7.4,8.5,79,0.00,,---,0.00,VWS V14.01,2013-06-22 18:40:00,
2013-06-22 11:41:00,59.5,53.4,29.97,WNW,292,4.0,7.4,80,0.00,,---,0.00,VWS V14.01,2013-06-22 18:41:00,
2013-06-22 11:46:00,59.4,52.5,29.97,West,270,2.9,7.4,78,0.00,,---,0.00,VWS V14.01,2013-06-22 18:46:00,
2013-06-22 11:50:00,59.7,52.9,29.97,NW,315,3.1,7.4,78,0.00,,---,0.00,VWS V14.01,2013-06-22 18:50:00,
2013-06-22 11:51:00,59.5,52.7,29.97,NW,315,3.6,4.3,78,0.00,,---,0.00,VWS V14.01,2013-06-22 18:51:00,
2013-06-22 11:56:00,59.5,52.3,29.97,North,0,6.3,6.3,77,0.00,,---,0.00,VWS V14.01,2013-06-22 18:56:00,
2013-06-22 12:00:00,59.7,52.5,29.97,NNW,338,4.9,6.5,77,0.00,,---,0.00,VWS V14.01,2013-06-22 19:00:00,
2013-06-22 12:01:00,59.7,52.5,29.97,WNW,292,3.6,4.9,77,0.00,,---,0.00,VWS V14.01,2013-06-22 19:01:00,
2013-06-22 12:06:00,59.7,52.9,29.97,NNW,338,7.8,7.8,78,0.00,,---,0.00,VWS V14.01,2013-06-22 19:06:00,
2013-06-22 12:10:00,59.7,52.5,29.97,NW,315,5.4,7.8,77,0.00,,---,0.00,VWS V14.01,2013-06-22 19:10:00,
2013-06-22 12:11:00,59.7,52.5,29.97,NW,315,1.6,7.4,77,0.00,,---,0.00,VWS V14.01,2013-06-22 19:11:00,
2013-06-22 12:16:00,60.3,53.0,29.97,WNW,292,3.6,7.4,77,0.00,,---,0.00,VWS V14.01,2013-06-22 19:16:00,
2013-06-22 12:20:00,60.6,53.0,29.97,WNW,292,2.2,7.4,76,0.00,,---,0.00,VWS V14.01,2013-06-22 19:20:00,
2013-06-22 12:21:00,60.8,52.8,29.97,WNW,292,4.3,4.3,75,0.00,,---,0.00,VWS V14.01,2013-06-22 19:21:00,
2013-06-22 12:26:00,61.3,53.0,29.97,WSW,248,3.6,4.3,74,0.00,,---,0.00,VWS V14.01,2013-06-22 19:26:00,
2013-06-22 12:30:00,61.5,52.8,29.97,NNW,338,3.1,4.9,73,0.00,,---,0.00,VWS V14.01,2013-06-22 19:30:00,
2013-06-22 12:31:00,61.9,53.1,29.97,West,270,1.6,3.1,73,0.00,,---,0.00,VWS V14.01,2013-06-22 19:31:00,
2013-06-22 12:36:00,61.9,53.1,29.97,WNW,292,3.4,4.0,73,0.00,,---,0.00,VWS V14.01,2013-06-22 19:36:00,
2013-06-22 12:40:00,62.1,53.3,29.97,WNW,292,4.0,4.0,73,0.00,,---,0.00,VWS V14.01,2013-06-22 19:40:00,
2013-06-22 12:41:00,62.2,53.5,29.97,WNW,292,2.5,4.0,73,0.00,,---,0.00,VWS V14.01,2013-06-22 19:41:00,
2013-06-22 12:46:00,62.4,52.9,29.97,NNW,338,6.0,6.0,71,0.00,,---,0.00,VWS V14.01,2013-06-22 19:46:00,
2013-06-22 12:50:00,62.1,52.2,29.97,WNW,292,4.9,7.2,70,0.00,,---,0.00,VWS V14.01,2013-06-22 19:50:00,
2013-06-22 12:51:00,62.2,52.7,29.97,NNW,338,3.8,4.9,71,0.00,,---,0.00,VWS V14.01,2013-06-22 19:51:00,
2013-06-22 12:57:00,62.6,52.7,29.94,WNW,292,3.4,7.2,70,0.00,,---,0.00,VWS V14.01,2013-06-22 19:57:00,
2013-06-22 13:00:00,63.0,53.4,29.94,SW,225,3.4,7.2,71,0.00,,---,0.00,VWS V14.01,2013-06-22 20:00:00,
2013-06-22 13:02:00,63.1,53.6,29.94,WSW,248,3.8,3.8,71,0.00,,---,0.00,VWS V14.01,2013-06-22 20:02:00,
2013-06-22 13:07:00,63.9,53.9,29.94,WNW,292,1.6,4.3,70,0.00,,---,0.00,VWS V14.01,2013-06-22 20:07:00,
2013-06-22 13:10:00,64.0,53.7,29.94,NW,315,2.9,4.3,69,0.00,,---,0.00,VWS V14.01,2013-06-22 20:10:00,
2013-06-22 13:12:00,64.0,53.3,29.94,WNW,292,2.7,2.9,68,0.00,,---,0.00,VWS V14.01,2013-06-22 20:12:00,
2013-06-22 13:17:00,64.0,52.5,29.94,WSW,248,3.8,4.9,66,0.00,,---,0.00,VWS V14.01,2013-06-22 20:17:00,
2013-06-22 13:20:00,64.2,53.0,29.94,WSW,248,2.7,4.9,67,0.00,,---,0.00,VWS V14.01,2013-06-22 20:20:00,
2013-06-22 13:22:00,64.4,53.2,29.94,WNW,292,3.1,3.8,67,0.00,,---,0.00,VWS V14.01,2013-06-22 20:22:00,
2013-06-22 13:27:00,64.9,52.9,29.94,WNW,292,3.6,4.9,65,0.00,,---,0.00,VWS V14.01,2013-06-22 20:27:00,
2013-06-22 13:30:00,65.1,53.1,29.94,NNW,338,4.0,4.9,65,0.00,,---,0.00,VWS V14.01,2013-06-22 20:30:00,
2013-06-22 13:32:00,65.1,51.3,29.94,NNW,338,2.5,4.0,61,0.00,,---,0.00,VWS V14.01,2013-06-22 20:32:00,
2013-06-22 13:37:00,65.5,52.1,29.94,NNW,338,2.0,4.0,62,0.00,,---,0.00,VWS V14.01,2013-06-22 20:37:00,
2013-06-22 13:40:00,65.7,52.3,29.94,WSW,248,3.4,4.0,62,0.00,,---,0.00,VWS V14.01,2013-06-22 20:40:00,
2013-06-22 13:42:00,65.8,52.9,29.94,NW,315,2.2,3.4,63,0.00,,---,0.00,VWS V14.01,2013-06-22 20:42:00,
2013-06-22 13:47:00,66.4,53.4,29.94,WNW,292,3.1,3.4,63,0.00,,---,0.00,VWS V14.01,2013-06-22 20:47:00,
2013-06-22 13:50:00,66.2,51.9,29.94,WNW,292,2.2,3.4,60,0.00,,---,0.00,VWS V14.01,2013-06-22 20:50:00,
2013-06-22 13:52:00,66.0,52.6,29.94,West,270,2.5,3.8,62,0.00,,---,0.00,VWS V14.01,2013-06-22 20:52:00,
2013-06-22 13:57:00,66.6,51.3,29.94,NW,315,2.7,3.8,58,0.00,,---,0.00,VWS V14.01,2013-06-22 20:57:00,
2013-06-22 14:00:00,66.9,53.0,29.94,WSW,248,2.7,3.8,61,0.00,,---,0.00,VWS V14.01,2013-06-22 21:00:00,
2013-06-22 14:02:00,66.9,52.6,29.94,ENE,68,4.9,4.9,60,0.00,,---,0.00,VWS V14.01,2013-06-22 21:02:00,
2013-06-22 14:07:00,67.3,53.4,29.94,West,270,3.1,4.9,61,0.00,,---,0.00,VWS V14.01,2013-06-22 21:07:00,
2013-06-22 14:10:00,66.9,53.0,29.94,WSW,248,1.6,4.9,61,0.00,,---,0.00,VWS V14.01,2013-06-22 21:10:00,
2013-06-22 14:12:00,67.1,53.2,29.94,WNW,292,4.0,4.7,61,0.00,,---,0.00,VWS V14.01,2013-06-22 21:12:00,
2013-06-22 14:17:00,66.6,52.7,29.94,West,270,4.9,4.9,61,0.00,,---,0.00,VWS V14.01,2013-06-22 21:17:00,
2013-06-22 14:20:00,65.8,51.6,29.94,WSW,248,2.2,4.9,60,0.00,,---,0.00,VWS V14.01,2013-06-22 21:20:00,
2013-06-22 14:22:00,66.6,53.2,29.94,West,270,3.4,3.4,62,0.00,,---,0.00,VWS V14.01,2013-06-22 21:22:00,
2013-06-22 14:27:00,67.1,53.7,29.94,SSW,202,3.8,3.8,62,0.00,,---,0.00,VWS V14.01,2013-06-22 21:27:00,
2013-06-22 14:30:00,66.7,52.9,29.94,WSW,248,3.4,3.8,61,0.00,,---,0.00,VWS V14.01,2013-06-22 21:30:00,
2013-06-22 14:32:00,66.7,53.3,29.94,WSW,248,3.8,3.8,62,0.00,,---,0.00,VWS V14.01,2013-06-22 21:32:00,
2013-06-22 14:37:00,66.7,52.0,29.94,WSW,248,4.3,4.3,59,0.00,,---,0.00,VWS V14.01,2013-06-22 21:37:00,
2013-06-22 14:40:00,66.6,52.3,29.94,WSW,248,4.3,4.3,60,0.00,,---,0.00,VWS V14.01,2013-06-22 21:40:00,
2013-06-22 14:42:00,66.6,52.7,29.94,WSW,248,1.6,4.3,61,0.00,,---,0.00,VWS V14.01,2013-06-22 21:42:00,
2013-06-22 14:47:00,66.9,53.5,29.94,SW,225,2.0,4.3,62,0.00,,---,0.00,VWS V14.01,2013-06-22 21:47:00,
2013-06-22 14:50:00,67.1,53.7,29.94,SSW,202,1.1,4.3,62,0.00,,---,0.00,VWS V14.01,2013-06-22 21:50:00,
2013-06-22 14:52:00,66.9,53.0,29.94,WSW,248,1.3,2.0,61,0.00,,---,0.00,VWS V14.01,2013-06-22 21:52:00,
2013-06-22 14:57:00,67.3,53.4,29.94,SE,135,3.6,3.6,61,0.00,,---,0.00,VWS V14.01,2013-06-22 21:57:00,
2013-06-22 15:00:00,67.1,53.2,29.94,SSW,202,2.5,3.6,61,0.00,,---,0.00,VWS V14.01,2013-06-22 22:00:00,
2013-06-22 15:02:00,67.3,52.9,29.94,WSW,248,4.3,4.3,60,0.00,,---,0.00,VWS V14.01,2013-06-22 22:02:00,
2013-06-22 15:07:00,67.6,53.3,29.94,SW,225,1.3,4.3,60,0.00,,---,0.00,VWS V14.01,2013-06-22 22:07:00,
2013-06-22 15:10:00,67.6,52.8,29.94,West,270,3.1,4.3,59,0.00,,---,0.00,VWS V14.01,2013-06-22 22:10:00,
2013-06-22 15:12:00,67.6,52.8,29.94,WSW,248,3.1,4.0,59,0.00,,---,0.00,VWS V14.01,2013-06-22 22:12:00,
2013-06-22 15:17:00,67.6,51.9,29.94,West,270,2.9,4.0,57,0.00,,---,0.00,VWS V14.01,2013-06-22 22:17:00,
2013-06-22 15:20:00,67.6,51.9,29.94,West,270,2.0,4.0,57,0.00,,---,0.00,VWS V14.01,2013-06-22 22:20:00,
2013-06-22 15:22:00,68.2,52.4,29.94,WNW,292,1.6,2.0,57,0.00,,---,0.00,VWS V14.01,2013-06-22 22:22:00,
2013-06-22 15:27:00,68.4,53.0,29.94,SSE,158,1.3,2.9,58,0.00,,---,0.00,VWS V14.01,2013-06-22 22:27:00,
2013-06-22 15:30:00,68.7,52.9,29.94,West,270,2.2,2.9,57,0.00,,---,0.00,VWS V14.01,2013-06-22 22:30:00,
2013-06-22 15:32:00,68.7,53.4,29.94,SSW,202,1.6,2.2,58,0.00,,---,0.00,VWS V14.01,2013-06-22 22:32:00,
2013-06-22 15:37:00,68.2,51.4,29.94,WNW,292,0.0,2.2,55,0.00,,---,0.00,VWS V14.01,2013-06-22 22:37:00,
2013-06-22 15:40:00,67.6,51.4,29.94,NNW,338,1.1,2.2,56,0.00,,---,0.00,VWS V14.01,2013-06-22 22:40:00,
2013-06-22 15:43:00,67.3,50.6,29.94,WNW,292,5.6,5.6,55,0.00,,---,0.00,VWS V14.01,2013-06-22 22:43:00,
2013-06-22 15:48:00,66.4,50.7,29.94,NNW,338,2.7,5.6,57,0.00,,---,0.00,VWS V14.01,2013-06-22 22:48:00,
2013-06-22 15:50:00,66.6,50.9,29.94,WNW,292,4.7,7.2,57,0.00,,---,0.00,VWS V14.01,2013-06-22 22:50:00,
2013-06-22 15:53:00,66.6,50.9,29.94,WNW,292,2.5,4.7,57,0.00,,---,0.00,VWS V14.01,2013-06-22 22:53:00,
2013-06-22 15:58:00,67.1,51.4,29.94,NNW,338,2.7,4.7,57,0.00,,---,0.00,VWS V14.01,2013-06-22 22:58:00,
2013-06-22 16:00:00,67.1,50.9,29.94,NW,315,5.8,5.8,56,0.00,,---,0.00,VWS V14.01,2013-06-22 23:00:00,
2013-06-22 16:03:00,67.1,50.9,29.94,NW,315,2.9,5.8,56,0.00,,---,0.00,VWS V14.01,2013-06-22 23:03:00,
2013-06-22 16:08:00,66.2,51.0,29.94,NNW,338,5.4,6.0,58,0.00,,---,0.00,VWS V14.01,2013-06-22 23:08:00,
2013-06-22 16:10:00,66.2,51.0,29.94,NNW,338,4.5,6.0,58,0.00,,---,0.00,VWS V14.01,2013-06-22 23:10:00,
2013-06-22 16:13:00,66.6,52.3,29.91,WNW,292,2.5,4.5,60,0.00,,---,0.00,VWS V14.01,2013-06-22 23:13:00,
2013-06-22 16:18:00,67.1,51.8,29.91,WSW,248,0.9,4.5,58,0.00,,---,0.00,VWS V14.01,2013-06-22 23:18:00,
2013-06-22 16:20:00,67.1,51.8,29.91,WSW,248,1.3,4.5,58,0.00,,---,0.00,VWS V14.01,2013-06-22 23:20:00,
2013-06-22 16:23:00,67.5,52.2,29.91,West,270,2.0,3.6,58,0.00,,---,0.00,VWS V14.01,2013-06-22 23:23:00,
2013-06-22 16:28:00,67.8,50.1,29.91,SSW,202,2.7,3.6,53,0.00,,---,0.00,VWS V14.01,2013-06-22 23:28:00,
2013-06-22 16:30:00,67.8,50.1,29.91,SSW,202,1.3,3.6,53,0.00,,---,0.00,VWS V14.01,2013-06-22 23:30:00,
2013-06-22 16:33:00,68.2,49.9,29.91,WSW,248,1.1,2.0,52,0.00,,---,0.00,VWS V14.01,2013-06-22 23:33:00,
2013-06-22 16:38:00,68.4,49.5,29.91,SSW,202,0.0,2.0,51,0.00,,---,0.00,VWS V14.01,2013-06-22 23:38:00,
2013-06-22 16:40:00,68.4,49.0,29.91,SSW,202,3.8,3.8,50,0.00,,---,0.00,VWS V14.01,2013-06-22 23:40:00,
2013-06-22 16:43:00,67.8,47.4,29.91,SSW,202,0.9,4.7,48,0.00,,---,0.00,VWS V14.01,2013-06-22 23:43:00,
2013-06-22 16:48:00,68.0,47.6,29.91,SW,225,1.6,4.7,48,0.00,,---,0.00,VWS V14.01,2013-06-22 23:48:00,
2013-06-22 16:50:00,68.2,47.2,29.91,SW,225,2.0,4.7,47,0.00,,---,0.00,VWS V14.01,2013-06-22 23:50:00,
2013-06-22 16:53:00,68.4,48.5,29.91,South,180,1.6,2.7,49,0.00,,---,0.00,VWS V14.01,2013-06-22 23:53:00,
2013-06-22 16:58:00,68.9,49.0,29.91,WSW,248,3.6,3.6,49,0.00,,---,0.00,VWS V14.01,2013-06-22 23:58:00,
2013-06-22 17:00:00,69.1,49.1,29.91,SW,225,2.0,3.6,49,0.00,,---,0.00,VWS V14.01,2013-06-23 00:00:00,
2013-06-22 17:03:00,69.1,48.6,29.91,SSW,202,0.9,2.0,48,0.00,,---,0.00,VWS V14.01,2013-06-23 00:03:00,
2013-06-22 17:08:00,69.3,48.2,29.91,SSW,202,0.0,4.0,47,0.00,,---,0.00,VWS V14.01,2013-06-23 00:08:00,
2013-06-22 17:10:00,69.3,48.2,29.91,SSE,158,3.6,4.0,47,0.00,,---,0.00,VWS V14.01,2013-06-23 00:10:00,
2013-06-22 17:13:00,69.4,48.3,29.91,SW,225,1.1,3.6,47,0.00,,---,0.00,VWS V14.01,2013-06-23 00:13:00,
2013-06-22 17:18:00,69.4,48.3,29.91,SSW,202,0.9,3.6,47,0.00,,---,0.00,VWS V14.01,2013-06-23 00:18:00,
2013-06-22 17:20:00,69.4,48.3,29.91,SW,225,2.9,3.6,47,0.00,,---,0.00,VWS V14.01,2013-06-23 00:20:00,
2013-06-22 17:23:00,69.4,48.3,29.91,SW,225,1.1,2.9,47,0.00,,---,0.00,VWS V14.01,2013-06-23 00:23:00,
2013-06-22 17:28:00,69.6,48.5,29.91,WSW,248,2.9,2.9,47,0.00,,---,0.00,VWS V14.01,2013-06-23 00:28:00,
2013-06-22 17:30:00,69.6,48.5,29.91,WSW,248,0.0,2.9,47,0.00,,---,0.00,VWS V14.01,2013-06-23 00:30:00,
2013-06-22 17:33:00,69.1,46.9,29.91,SSW,202,1.6,3.1,45,0.00,,---,0.00,VWS V14.01,2013-06-23 00:33:00,
2013-06-22 17:38:00,68.4,46.8,29.91,SW,225,0.0,3.1,46,0.00,,---,0.00,VWS V14.01,2013-06-23 00:38:00,
2013-06-22 17:40:00,68.2,47.2,29.91,SSE,158,2.0,3.1,47,0.00,,---,0.00,VWS V14.01,2013-06-23 00:40:00,
2013-06-22 17:43:00,68.0,47.0,29.91,South,180,0.0,3.4,47,0.00,,---,0.00,VWS V14.01,2013-06-23 00:43:00,
2013-06-22 17:48:00,67.6,47.8,29.91,SSE,158,4.5,4.5,49,0.00,,---,0.00,VWS V14.01,2013-06-23 00:48:00,
2013-06-22 17:50:00,67.6,47.8,29.91,SW,225,2.9,4.5,49,0.00,,---,0.00,VWS V14.01,2013-06-23 00:50:00,
2013-06-22 17:53:00,67.1,47.3,29.91,SE,135,2.5,2.9,49,0.00,,---,0.00,VWS V14.01,2013-06-23 00:53:00,
2013-06-22 17:58:00,66.7,47.5,29.91,SSW,202,1.6,2.9,50,0.00,,---,0.00,VWS V14.01,2013-06-23 00:58:00,
2013-06-22 18:00:00,66.7,48.1,29.91,SSE,158,0.0,2.9,51,0.00,,---,0.00,VWS V14.01,2013-06-23 01:00:00,
2013-06-22 18:03:00,66.6,47.9,29.91,SSW,202,1.1,2.9,51,0.00,,---,0.00,VWS V14.01,2013-06-23 01:03:00,
2013-06-22 18:08:00,66.4,48.2,29.91,SSW,202,0.0,2.9,52,0.00,,---,0.00,VWS V14.01,2013-06-23 01:08:00,
2013-06-22 18:10:00,66.0,48.4,29.91,SSE,158,2.0,2.9,53,0.00,,---,0.00,VWS V14.01,2013-06-23 01:10:00,
2013-06-22 18:13:00,65.8,48.8,29.91,South,180,0.9,2.0,54,0.00,,---,0.00,VWS V14.01,2013-06-23 01:13:00,
2013-06-22 18:18:00,65.7,49.1,29.91,SSW,202,0.0,2.0,55,0.00,,---,0.00,VWS V14.01,2013-06-23 01:18:00,
2013-06-22 18:20:00,65.7,49.1,29.91,SSE,158,0.0,2.2,55,0.00,,---,0.00,VWS V14.01,2013-06-23 01:20:00,
2013-06-22 18:23:00,65.3,48.7,29.91,SSW,202,0.0,0.0,55,0.00,,---,0.00,VWS V14.01,2013-06-23 01:23:00,
2013-06-22 18:28:00,65.5,49.4,29.91,SW,225,1.3,2.5,56,0.00,,---,0.00,VWS V14.01,2013-06-23 01:28:00,
2013-06-22 18:30:00,65.5,49.4,29.91,SSW,202,0.0,2.5,56,0.00,,---,0.00,VWS V14.01,2013-06-23 01:30:00,
2013-06-22 18:33:00,65.3,49.2,29.91,WSW,248,2.9,2.9,56,0.00,,---,0.00,VWS V14.01,2013-06-23 01:33:00,
2013-06-22 18:38:00,64.6,49.0,29.91,SSW,202,2.7,3.4,57,0.00,,---,0.00,VWS V14.01,2013-06-23 01:38:00,
2013-06-22 18:40:00,64.6,49.0,29.91,SW,225,1.6,3.4,57,0.00,,---,0.00,VWS V14.01,2013-06-23 01:40:00,
2013-06-22 18:43:00,64.4,48.8,29.91,SSW,202,0.0,2.5,57,0.00,,---,0.00,VWS V14.01,2013-06-23 01:43:00,
2013-06-22 18:48:00,64.2,49.2,29.91,SSW,202,1.6,2.5,58,0.00,,---,0.00,VWS V14.01,2013-06-23 01:48:00,
2013-06-22 18:50:00,64.2,49.2,29.91,SSW,202,0.9,2.5,58,0.00,,---,0.00,VWS V14.01,2013-06-23 01:50:00,
2013-06-22 18:53:00,64.0,49.0,29.91,SSW,202,1.1,1.3,58,0.00,,---,0.00,VWS V14.01,2013-06-23 01:53:00,
2013-06-22 18:58:00,63.5,48.9,29.91,SSW,202,1.6,1.6,59,0.00,,---,0.00,VWS V14.01,2013-06-23 01:58:00,
2013-06-22 19:00:00,63.5,48.9,29.91,South,180,0.9,1.6,59,0.00,,---,0.00,VWS V14.01,2013-06-23 02:00:00,
2013-06-22 19:03:00,63.3,49.2,29.91,SSE,158,1.6,1.6,60,0.00,,---,0.00,VWS V14.01,2013-06-23 02:03:00,
2013-06-22 19:08:00,63.3,49.2,29.91,SSW,202,0.0,2.7,60,0.00,,---,0.00,VWS V14.01,2013-06-23 02:08:00,
2013-06-22 19:10:00,63.1,49.0,29.91,SSW,202,1.3,2.7,60,0.00,,---,0.00,VWS V14.01,2013-06-23 02:10:00,
2013-06-22 19:13:00,63.1,49.5,29.91,SSW,202,1.1,1.6,61,0.00,,---,0.00,VWS V14.01,2013-06-23 02:13:00,
2013-06-22 19:18:00,63.0,49.3,29.91,SSW,202,0.0,1.6,61,0.00,,---,0.00,VWS V14.01,2013-06-23 02:18:00,
2013-06-22 19:20:00,63.0,49.3,29.91,SSW,202,0.0,1.6,61,0.00,,---,0.00,VWS V14.01,2013-06-23 02:20:00,
2013-06-22 19:23:00,63.0,49.8,29.91,SSW,202,0.0,1.6,62,0.00,,---,0.00,VWS V14.01,2013-06-23 02:23:00,
2013-06-22 19:28:00,63.0,50.2,29.91,ESE,112,0.9,2.9,63,0.00,,---,0.00,VWS V14.01,2013-06-23 02:28:00,
2013-06-22 19:30:00,63.0,50.2,29.91,SSE,158,0.0,2.9,63,0.00,,---,0.00,VWS V14.01,2013-06-23 02:30:00,
2013-06-22 19:33:00,62.8,50.4,29.91,SSE,158,2.7,2.7,64,0.00,,---,0.00,VWS V14.01,2013-06-23 02:33:00,
2013-06-22 19:38:00,62.6,50.3,29.91,SE,135,1.3,2.7,64,0.00,,---,0.00,VWS V14.01,2013-06-23 02:38:00,
2013-06-22 19:40:00,62.6,50.3,29.91,SSE,158,1.1,2.7,64,0.00,,---,0.00,VWS V14.01,2013-06-23 02:40:00,
2013-06-22 19:44:00,62.6,50.7,29.88,SSE,158,1.1,2.0,65,0.00,,---,0.00,VWS V14.01,2013-06-23 02:44:00,
2013-06-22 19:49:00,62.4,50.9,29.88,SSE,158,0.0,2.0,66,0.00,,---,0.00,VWS V14.01,2013-06-23 02:49:00,
2013-06-22 19:50:00,62.4,50.9,29.88,SE,135,1.1,2.0,66,0.00,,---,0.00,VWS V14.01,2013-06-23 02:50:00,
2013-06-22 19:54:00,62.4,50.9,29.88,SSE,158,0.0,1.6,66,0.00,,---,0.00,VWS V14.01,2013-06-23 02:54:00,
2013-06-22 19:59:00,62.2,51.2,29.88,SE,135,2.0,5.6,67,0.00,,---,0.00,VWS V14.01,2013-06-23 02:59:00,
2013-06-22 20:00:00,62.2,51.2,29.88,SSE,158,2.5,5.6,67,0.00,,---,0.00,VWS V14.01,2013-06-23 03:00:00,
2013-06-22 20:04:00,62.2,51.2,29.88,SE,135,0.9,4.3,67,0.00,,---,0.00,VWS V14.01,2013-06-23 03:04:00,
2013-06-22 20:09:00,62.2,51.6,29.88,SE,135,0.0,4.3,68,0.00,,---,0.00,VWS V14.01,2013-06-23 03:09:00,
2013-06-22 20:10:00,62.2,51.6,29.88,SE,135,1.6,4.3,68,0.00,,---,0.00,VWS V14.01,2013-06-23 03:10:00,
2013-06-22 20:14:00,62.2,51.6,29.88,SSE,158,0.0,2.0,68,0.00,,---,0.00,VWS V14.01,2013-06-23 03:14:00,
2013-06-22 20:19:00,62.2,51.6,29.88,SSE,158,0.0,2.0,68,0.00,,---,0.00,VWS V14.01,2013-06-23 03:19:00,
2013-06-22 20:20:00,62.2,52.0,29.88,SSE,158,0.9,2.0,69,0.00,,---,0.00,VWS V14.01,2013-06-23 03:20:00,
2013-06-22 20:24:00,62.2,52.0,29.88,SSE,158,0.0,1.1,69,0.00,,---,0.00,VWS V14.01,2013-06-23 03:24:00,
2013-06-22 20:29:00,62.2,52.0,29.88,SE,135,1.6,2.2,69,0.00,,---,0.00,VWS V14.01,2013-06-23 03:29:00,
2013-06-22 20:30:00,62.2,52.0,29.88,SE,135,1.6,2.2,69,0.00,,---,0.00,VWS V14.01,2013-06-23 03:30:00,
2013-06-22 20:34:00,62.1,52.2,29.88,SE,135,0.9,1.6,70,0.00,,---,0.00,VWS V14.01,2013-06-23 03:34:00,
2013-06-22 20:39:00,62.2,52.3,29.88,SE,135,0.0,1.6,70,0.00,,---,0.00,VWS V14.01,2013-06-23 03:39:00,
2013-06-22 20:40:00,62.2,52.3,29.88,SE,135,0.9,1.6,70,0.00,,---,0.00,VWS V14.01,2013-06-23 03:40:00,
2013-06-22 20:44:00,62.2,52.3,29.88,SE,135,0.0,0.9,70,0.00,,---,0.00,VWS V14.01,2013-06-23 03:44:00,
2013-06-22 20:49:00,62.2,52.7,29.88,SE,135,2.7,2.7,71,0.00,,---,0.00,VWS V14.01,2013-06-23 03:49:00,
2013-06-22 20:50:00,62.2,52.7,29.88,SE,135,2.7,2.7,71,0.00,,---,0.00,VWS V14.01,2013-06-23 03:50:00,
2013-06-22 20:54:00,62.1,52.6,29.88,SE,135,1.1,3.4,71,0.00,,---,0.00,VWS V14.01,2013-06-23 03:54:00,
2013-06-22 20:59:00,62.1,52.6,29.88,SE,135,1.1,3.4,71,0.00,,---,0.00,VWS V14.01,2013-06-23 03:59:00,
2013-06-22 21:00:00,62.1,52.6,29.88,SE,135,0.0,3.4,71,0.00,,---,0.00,VWS V14.01,2013-06-23 04:00:00,
2013-06-22 21:01:00,62.1,52.9,29.88,SE,135,1.6,1.6,72,0.00,,---,0.00,VWS V14.01,2013-06-23 04:01:00,
2013-06-22 21:02:00,62.1,52.9,29.88,SE,135,0.0,1.6,72,0.00,,---,0.00,VWS V14.01,2013-06-23 04:02:00,
2013-06-22 21:03:00,62.1,52.9,29.88,SE,135,0.0,1.6,72,0.00,,---,0.00,VWS V14.01,2013-06-23 04:03:00,
2013-06-22 21:05:00,62.1,52.9,29.88,WSW,248,1.1,1.6,72,0.00,,---,0.00,VWS V14.01,2013-06-23 04:05:00,
2013-06-22 21:10:00,62.1,52.9,29.88,SW,225,0.0,2.9,72,0.00,,---,0.00,VWS V14.01,2013-06-23 04:10:00,
2013-06-22 21:15:00,61.9,52.8,29.88,SE,135,1.6,1.6,72,0.00,,---,0.00,VWS V14.01,2013-06-23 04:15:00,
2013-06-22 21:20:00,61.9,52.8,29.88,SSE,158,1.1,1.1,72,0.00,,---,0.00,VWS V14.01,2013-06-23 04:20:00,
2013-06-22 21:25:00,61.7,53.0,29.88,SE,135,2.9,2.9,73,0.00,,---,0.00,VWS V14.01,2013-06-23 04:25:00,
2013-06-22 21:30:00,61.5,52.8,29.88,SE,135,2.7,2.7,73,0.00,,---,0.00,VWS V14.01,2013-06-23 04:30:00,
2013-06-22 21:35:00,61.5,53.2,29.88,SE,135,1.6,3.4,74,0.00,,---,0.00,VWS V14.01,2013-06-23 04:35:00,
2013-06-22 21:40:00,61.3,53.0,29.88,SE,135,3.4,3.4,74,0.00,,---,0.00,VWS V14.01,2013-06-23 04:40:00,
2013-06-22 21:46:00,61.2,53.2,29.88,SSW,202,2.0,3.4,75,0.00,,---,0.00,VWS V14.01,2013-06-23 04:46:00,
2013-06-22 21:50:00,61.2,53.5,29.88,SSE,158,1.3,3.4,76,0.00,,---,0.00,VWS V14.01,2013-06-23 04:50:00,
2013-06-22 21:51:00,61.2,53.5,29.88,SSE,158,3.8,3.8,76,0.00,,---,0.00,VWS V14.01,2013-06-23 04:51:00,
2013-06-22 21:56:00,61.2,53.5,29.88,SE,135,2.5,3.8,76,0.00,,---,0.00,VWS V14.01,2013-06-23 04:56:00,
2013-06-22 22:00:00,61.0,53.7,29.88,SSE,158,1.1,3.8,77,0.00,,---,0.00,VWS V14.01,2013-06-23 05:00:00,
2013-06-22 22:01:00,61.0,53.7,29.88,SSE,158,1.1,1.1,77,0.00,,---,0.00,VWS V14.01,2013-06-23 05:01:00,
2013-06-22 22:06:00,61.0,53.7,29.88,South,180,0.0,2.5,77,0.00,,---,0.00,VWS V14.01,2013-06-23 05:06:00,
2013-06-22 22:10:00,61.0,54.1,29.88,SE,135,3.8,3.8,78,0.00,,---,0.00,VWS V14.01,2013-06-23 05:10:00,
2013-06-22 22:11:00,61.0,54.1,29.88,SE,135,1.6,3.8,78,0.00,,---,0.00,VWS V14.01,2013-06-23 05:11:00,
2013-06-22 22:16:00,60.8,53.9,29.88,SSE,158,1.1,3.8,78,0.00,,---,0.00,VWS V14.01,2013-06-23 05:16:00,
2013-06-22 22:20:00,60.8,53.9,29.88,South,180,0.0,3.8,78,0.00,,---,0.00,VWS V14.01,2013-06-23 05:20:00,
2013-06-22 22:21:00,60.8,53.9,29.88,SSE,158,2.0,2.0,78,0.00,,---,0.00,VWS V14.01,2013-06-23 05:21:00,
2013-06-22 22:26:00,60.6,54.1,29.88,SSW,202,0.0,4.0,79,0.00,,---,0.00,VWS V14.01,2013-06-23 05:26:00,
2013-06-22 22:30:00,60.6,54.1,29.88,SE,135,2.9,4.0,79,0.00,,---,0.00,VWS V14.01,2013-06-23 05:30:00,
2013-06-22 22:31:00,60.6,54.1,29.88,ESE,112,0.9,2.9,79,0.00,,---,0.00,VWS V14.01,2013-06-23 05:31:00,
2013-06-22 22:36:00,60.4,54.2,29.88,SSE,158,1.1,2.9,80,0.00,,---,0.00,VWS V14.01,2013-06-23 05:36:00,
2013-06-22 22:40:00,60.4,54.2,29.88,SE,135,2.9,2.9,80,0.00,,---,0.00,VWS V14.01,2013-06-23 05:40:00,
2013-06-22 22:41:00,60.4,54.2,29.88,SE,135,3.6,3.6,80,0.00,,---,0.00,VWS V14.01,2013-06-23 05:41:00,
2013-06-22 22:46:00,60.4,54.6,29.85,East,90,3.4,3.6,81,0.00,,---,0.00,VWS V14.01,2013-06-23 05:46:00,
2013-06-22 22:50:00,60.3,54.4,29.85,SE,135,2.9,3.6,81,0.00,,---,0.00,VWS V14.01,2013-06-23 05:50:00,
2013-06-22 22:51:00,60.3,54.4,29.85,SE,135,2.7,2.9,81,0.00,,---,0.00,VWS V14.01,2013-06-23 05:51:00,
2013-06-22 22:56:00,60.3,54.4,29.85,SSE,158,1.3,2.9,81,0.00,,---,0.00,VWS V14.01,2013-06-23 05:56:00,
2013-06-22 23:00:00,60.3,54.4,29.85,SE,135,0.0,3.1,81,0.00,,---,0.00,VWS V14.01,2013-06-23 06:00:00,
2013-06-22 23:01:00,60.3,54.4,29.85,South,180,0.0,1.1,81,0.00,,---,0.00,VWS V14.01,2013-06-23 06:01:00,
2013-06-22 23:02:00,60.3,54.4,29.85,South,180,0.0,1.1,81,0.00,,---,0.00,VWS V14.01,2013-06-23 06:02:00,
2013-06-22 23:07:00,60.3,54.4,29.85,SSE,158,1.1,1.1,81,0.00,,---,0.00,VWS V14.01,2013-06-23 06:07:00,
2013-06-22 23:10:00,60.1,54.2,29.85,SE,135,2.5,2.5,81,0.00,,---,0.00,VWS V14.01,2013-06-23 06:10:00,
2013-06-22 23:12:00,60.1,54.6,29.85,SE,135,0.9,2.5,82,0.00,,---,0.00,VWS V14.01,2013-06-23 06:12:00,
2013-06-22 23:17:00,60.1,54.6,29.85,SSE,158,0.9,3.4,82,0.00,,---,0.00,VWS V14.01,2013-06-23 06:17:00,
2013-06-22 23:20:00,60.1,54.6,29.85,SSE,158,0.0,3.4,82,0.00,,---,0.00,VWS V14.01,2013-06-23 06:20:00,
2013-06-22 23:22:00,60.1,54.6,29.85,SE,135,0.0,1.6,82,0.00,,---,0.00,VWS V14.01,2013-06-23 06:22:00,
2013-06-22 23:27:00,60.1,54.9,29.85,SE,135,0.9,2.7,83,0.00,,---,0.00,VWS V14.01,2013-06-23 06:27:00,
2013-06-22 23:30:00,60.1,54.9,29.85,SE,135,0.0,2.7,83,0.00,,---,0.00,VWS V14.01,2013-06-23 06:30:00,
2013-06-22 23:32:00,60.1,54.9,29.85,SE,135,0.0,3.8,83,0.00,,---,0.00,VWS V14.01,2013-06-23 06:32:00,
2013-06-22 23:37:00,60.1,54.9,29.85,SE,135,2.9,4.7,83,0.00,,---,0.00,VWS V14.01,2013-06-23 06:37:00,
2013-06-22 23:40:00,60.1,54.9,29.85,SSE,158,0.0,4.7,83,0.00,,---,0.00,VWS V14.01,2013-06-23 06:40:00,
2013-06-22 23:42:00,60.1,54.9,29.85,SSE,158,0.9,0.9,83,0.00,,---,0.00,VWS V14.01,2013-06-23 06:42:00,
2013-06-22 23:47:00,60.3,55.1,29.85,SW,225,1.3,1.3,83,0.00,,---,0.00,VWS V14.01,2013-06-23 06:47:00,
2013-06-22 23:50:00,60.3,55.1,29.85,South,180,0.0,1.6,83,0.00,,---,0.00,VWS V14.01,2013-06-23 06:50:00,
2013-06-22 23:52:00,60.3,55.1,29.85,SSW,202,0.0,1.3,83,0.00,,---,0.00,VWS V14.01,2013-06-23 06:52:00,
2013-06-22 23:57:00,60.3,55.4,29.85,SSE,158,2.7,2.7,84,0.00,,---,0.00,VWS V14.01,2013-06-23 06:57:00,